Location: Garshuizen
(53.3675°N, 6.7248°E)
Time: 13:40:35
(UTC+00:00)

Cosmos 2279 Rocket - Pass Details

Date: 15 May 2026
Orbit: 962 x 978 km, 82.9° (Epoch: 11 June)

Event Time Altitude Azimuth Distance (km) Brightness Sun altitude
Exits shadow 22:16:39 24° 167° (SSE) 1,920 4.9 -15.9°
Maximum altitude 22:20:31 62° 94° (E) 1,094 4.1 -16.1°
Drops below altitude 10° 22:26:42 10° 15° (NNE) 2,741 7.3 -16.3°
Sets 22:29:14 0° 13° (NNE) 3,692 8.2 -16.4°
